Showing default

NILESAT 301, 52817

Orbit data source: Space-Track

NILESAT 301, 52817 is a payload satellite owned by Nilesat (EG) in GEO that was launched on Wed, 08 Jun 2022 UTC via an FALCON 9 launch vehicle from the Air Force Eastern Test Range (AFETR). Payload-class satellites include a variety of spacecraft equipped with specific instruments for various scientific and technological missions. These include communications satellites like Starlink; space stations such as the ISS; scientific satellites like the Hubble; Earth observation satellites from companies like Planet Labs, Umbra, and HawkEye 360; GPS; miniature CubeSats for education and research; and military/defense satellites.

Not visible in the next 10 days
Identifier
52817, 2022-061A
Orbit
GEO
Country
Flag of EGEG / EGYP
Related business
Manufacturer
Thales Alenia
Mission
Operational Civil Communications
Bus & Motor
SPACEBUS 4000B2, S400
Mass
3,938 kg wet, ~1,500 kg dry
Launch date (UTC)
2022-06-08 (4 years ago)
Launch vehicle
FALCON 9
Launch site
Air Force Eastern Test Range (AFETR)
Object type
Payload
Rocket body
Debris
Shape & HBR
Box + 2 Pan, 14.8 m
Radar Cross Section
20.286 m², Large (>1 m²)

Expand to show TLE details & history
Last TLE update: 2 days ago

TLE from 2 days ago
0 NILESAT 301
1 52817U 22061A   26171.39059714 -.00000062  00000-0  00000+0 0  9997
2 52817   0.0507  20.7867 0004675  36.9855 344.4364  1.00271181 14762
Epoch: 2026-06-20T09:22Z
TLE epoch observation values (Epoch: 2026-06-20T09:22:27.592Z)
Latitude
0.03018°
Longitude
-7.01458°
Altitude
35,767.246 km
Speed
3.076 km/s
True Right ascension
02h 48m 49s
True Declination
0° 01' 49"
Sunlit
Object was in daylight at epoch
Visualization orbit readout
Latitude
Unknown
Longitude
Unknown
Altitude
Unknown
Speed
Unknown
Apparent Right ascension
Unknown
Apparent Declination
Unknown
Sunlit
N/A
Visualization observer readout
Local Sidereal Time
21:36:40
Azimuth
Unknown
Elevation
Unknown
Doppler factor
Unknown
Orbital elements
Apogee altitude
35,807.547 km
Perigee altitude
35,768.122 km
Semi-major axis
42,165.972 km
Eccentricity
0.00047
Inclination
0.0507°
RAAN
20.7867°
Arg. of periapsis
36.9855°
True anomaly
344.42202°
Mean anomaly
344.4364°
Eccentric anomaly
344.42921°
Mean motion
0.25067 °/min
Orbital period
1,436.16 mins
BSTAR
0
Loading maneuver chart data...
Computing Atmospheric mass density...
Loading historical data...
Loading historical data...
Loading historical data...
Loading historical data...
Loading historical data...
Loading historical data...
Loading historical data...
Other satellites on launch #61 in the year 2022 (2022-06-08 UTC)

Documentation

Showing up to 5 results
|